User: anonymous   Login
Location: Wellington
(41.3000°S, 174.7830°E)
Time: 01:00:12
(UTC+13:00)
Language:

SL-08 R/B - Orbit

View from above orbital plane
View from above orbital plane
View from above satellite
View from above satellite

Ground track
Ground track

The orbit data is extracted from the following two-line orbital elements,

1 28381U 04028B   19078.45278250 -.00000030 +00000-0 -44748-4 0  9990
2 28381 082.9584 219.0403 0032310 032.4925 000.1500 13.78243229737142
Epoch (UTC): 19 March 2019 10:52:00
Eccentricity: 0.0032310
inclination: 82.9584°
perigee height: 946 km
apogee height: 994 km
right ascension of ascending node: 219.0403°
argument of perigee: 32.4925°
revolutions per day: 13.78243229
mean anomaly at epoch: 0.1500°
orbit number at epoch: 73714

The dashed part of the orbit path shows where the satellite is in the earth's shadow,  

DLR